• Join FlightAware (Why Join?)
  • Login
  • US Flag 
02:01PM EDT


 

Airport Tracker/Info


-or-


 

Live Flight TrackerFlight Track Log ✈ EGF3767 ✈ 11-Feb-2014 ✈ KDFW - KSPS

Flight Track Log - Related Links

Times and Time Zones

All times are in EST time to prevent confusion due to time zone crossing. See the EGF3767 flight status page for this flight to view local times or setup timezone preferences in your user account.

Time Position Orientation Groundspeed Altitude Reporting Facility
EST Latitude Longitude Course Direction KTS MPH feet Rate Location/Type
09:05PM 32.9000 -97.0500 310° West 132 152 1,000  Level Dallas / Fort Worth TRACON
09:06PM 32.9333 -97.0667 337° Northwest 189 217 2,500 2,160 Climbing Dallas / Fort Worth TRACON
09:07PM 32.9833 -97.0833 344° North 251 289 4,700 2,520 Climbing Dallas / Fort Worth TRACON
09:08PM 33.0163 -97.2048 311° West  Level FlightAware Approximate
09:08PM 33.0000 -97.1667 283° West 251 289 7,600  Level Dallas / Fort Worth TRACON
09:09PM 33.0560 -97.2604 310° West  Level FlightAware Approximate
09:10PM 33.0958 -97.3162 310° West  Level FlightAware Approximate
09:10PM 32.9844 -97.3414 264° West 285 328 11,600  Level Fort Worth Center
09:11PM 33.0019 -97.4439 282° West 323 372 13,300 1,860 Climbing Fort Worth Center
09:12PM 33.0347 -97.5436 291° West 325 374 15,500 1,260 Climbing Fort Worth Center
09:13PM 33.0672 -97.6525 290° West 327 376 16,000 240 Climbing Fort Worth Center
09:14PM 33.0981 -97.7542 290° West 326 375 16,000  Level Fort Worth Center
09:15PM 33.1350 -97.8506 295° West 319 367 16,000  Level Fort Worth Center
09:16PM 33.1817 -97.9408 302° West 317 365 16,000  Level Fort Worth Center
09:17PM 33.2617 -98.0061 326° Northwest 325 374 16,000  Level Fort Worth Center
09:18PM 33.3375 -98.0636 328° Northwest 324 373 16,000  Level Fort Worth Center
09:18PM 33.3372 -98.0675 265° West 324 373 16,000  Level Fort Worth Center
09:18PM 33.3439 -98.0714 334° Northwest 324 373 16,000 -1,500 Level Fort Worth Center
09:19PM 33.4136 -98.1217 329° Northwest 323 372 14,500 -1,800 Descending Fort Worth Center
09:19PM 33.4228 -98.1308 320° Northwest 323 372 14,200 -1,860 Descending Fort Worth Center
09:20PM 33.4933 -98.1892 325° Northwest 313 360 12,500 -1,860 Descending Fort Worth Center
09:21PM 33.5583 -98.2400 327° Northwest 294 338 10,700 -1,920 Descending Fort Worth Center
09:21PM 33.5611 -98.2453 302° West 281 323 10,600 -2,220 Descending Fort Worth Center
09:22PM 33.6217 -98.2931 327° Northwest 265 305 8,300 -2,160 Descending Fort Worth Center
09:23PM 33.6847 -98.3294 334° Northwest 261 300 6,400 -2,040 Descending Fort Worth Center
09:23PM 33.6875 -98.3322 320° Northwest 254 292 6,300 -1,320 Descending Fort Worth Center
09:24PM 33.7525 -98.3689 335° Northwest 258 297 5,100 -1,200 Descending Fort Worth Center
09:24PM 33.7508 -98.3694 195° South 259 298 5,100 -840 Level Fort Worth Center
09:25PM 33.8125 -98.4083 332° Northwest 254 292 4,300 -900 Descending Fort Worth Center
09:25PM 33.8147 -98.4092 343° North 240 276 4,200 -900 Descending Fort Worth Center
09:26PM 33.8700 -98.4364 338° Northwest 222 255 3,400 -840 Descending Fort Worth Center
09:26PM 33.8683 -98.4353 151° Southeast 204 235 3,400 -1,200 Level Fort Worth Center
09:27PM 33.9175 -98.4589 338° Northwest 176 203 2,200 -1,200 Descending Fort Worth Center
09:27PM 33.9175 -98.4597 270° West 167 192 2,200 -720 Level Fort Worth Center
09:28PM 33.9519 -98.4744 340° North 142 163 1,500 -600 Descending Fort Worth Center
09:29PM 33.9833 -98.4903 337° Northwest 136 157 1,000 -540 Descending Fort Worth Center